DW7831 Weather Reports


Display with metric or nautical units.
time (UTC)temp
F
wind
direction
speed
MPH
gust
MPH
rain 1hr
in
rain 24hr
in
rain mn
in
humidity
%
barometer
mb
20190218213130 19 263 6.0 0.0 0.00 0.00 0.00 82 1018.4
20190218211622 20 340 6.0 0.0 0.00 0.00 0.00 82 1017.8
20190218210054 21 286 5.0 0.0 0.00 0.00 0.00 83 1017.1
20190218204612 22 308 7.0 0.0 0.00 0.00 0.00 83 1016.7
20190218203052 22 277 6.0 0.0 0.00 0.00 0.00 83 1016.5
20190218201544 22 267 8.0 0.0 0.00 0.00 0.00 84 1016.1
20190218200116 22 298 7.0 0.0 0.00 0.00 0.00 85 1016.0
20190218194549 22 288 5.0 0.0 0.00 0.00 0.00 85 1015.3
20190218193102 22 296 5.0 0.0 0.00 0.00 0.00 86 1015.1
20190218191552 22 311 7.0 0.0 0.00 0.00 0.00 86 1014.6
20190218190039 23 291 6.0 0.0 0.00 0.00 0.00 86 1014.5
20190218184535 24 319 4.0 0.0 0.00 0.00 0.00 87 1014.1
20190218183027 25 303 4.0 0.0 0.00 0.00 0.00 87 1013.5
20190218181540 26 315 5.0 0.0 0.00 0.00 0.00 87 1013.2
20190218180050 26 263 8.0 0.0 0.00 0.00 0.00 87 1012.7
20190218174516 27 313 5.0 0.0 0.00 0.00 0.00 88 1012.5
20190218173032 27 306 5.0 0.0 0.00 0.00 0.00 89 1012.3
20190218171539 28 304 5.0 0.0 0.00 0.00 0.00 89 1012.2
20190218170013 28 275 6.0 0.0 0.00 0.00 0.00 89 1012.0
20190218164511 28 246 6.0 0.0 0.00 0.00 0.00 90 1011.6
20190218163017 28 240 6.0 0.0 0.00 0.00 0.00 90 1011.3
20190218161553 28 262 5.0 0.0 0.00 0.00 0.00 91 1010.8
20190218160020 28 175 2.0 0.0 0.00 0.00 0.00 91 1010.6
20190218154513 27 36 1.0 0.0 0.00 0.00 0.00 91 1010.3
20190218153015 27 36 1.0 0.0 0.00 0.00 0.00 91 1009.9
20190218151722 26 35 0.0 0.0 0.00 0.00 0.00 91 1009.9
20190218150156 25 35 0.0 0.0 0.00 0.00 0.00 91 1009.6
20190218144645 24 35 0.0 0.0 0.00 0.00 0.00 91 1009.7
20190218143237 23 35 0.0 0.0 0.00 0.00 0.00 90 1009.6
20190218141738 23 35 1.0 0.0 0.00 0.00 0.00 90 1009.8
20190218140122 23 34 1.0 0.0 0.00 0.00 0.00 90 1009.6
20190218134610 23 35 1.0 0.0 0.00 0.00 0.00 90 1009.4
20190218133123 22 32 1.0 0.0 0.00 0.00 0.00 90 1009.5
20190218131628 22 35 2.0 0.0 0.00 0.00 0.00 90 1009.5
20190218130149 22 69 4.0 0.0 0.00 0.00 0.00 90 1009.4
20190218124644 0 0.0 0.0 0.00 0.00 0.00 1009.2
20190218123108 0 0.0 0.0 0.00 0.00 0.00 1009.1
20190218121704 0 0.0 0.0 0.00 0.00 0.00 1009.0
20190218120051 0 0.0 0.0 0.00 0.00 0.00 1009.0
20190218114548 0 0.0 0.0 0.00 0.00 0.00 1009.0
20190218113059 0 0.0 0.0 0.00 0.00 0.00 1009.4
20190218111549 0 0.0 0.0 0.00 0.00 0.00 1009.3
20190218110033 0 0.0 0.0 0.00 0.00 0.00 1009.6
20190218104519 0 0.0 0.0 0.00 0.00 0.00 1009.8
20190218103225 22 68 5.0 0.0 0.00 0.00 0.00 90 1009.6
20190218101750 22 55 6.0 0.0 0.00 0.00 0.00 89 1009.9
20190218100226 22 41 5.0 0.0 0.00 0.00 0.00 90 1009.8
20190218094643 22 48 5.0 0.0 0.00 0.00 0.00 89 1009.7
20190218093118 22 65 4.0 0.0 0.00 0.00 0.00 89 1010.0
20190218091645 22 59 3.0 0.0 0.00 0.00 0.00 89 1010.0
20190218090150 22 49 4.0 0.0 0.00 0.00 0.00 89 1010.5
20190218084549 22 72 4.0 0.0 0.00 0.00 0.00 89 1010.8
20190218083118 23 62 4.0 0.0 0.00 0.00 0.00 89 1010.8
20190218081647 23 65 6.0 0.0 0.00 0.00 0.00 88 1010.9
20190218080154 23 107 4.0 0.0 0.00 0.00 0.00 88 1011.0
20190218074630 23 62 3.0 0.0 0.00 0.00 0.00 87 1011.5
20190218073147 23 74 3.0 0.0 0.00 0.00 0.00 87 1011.9
20190218071614 23 78 4.0 0.0 0.00 0.00 0.00 87 1012.2
20190218070048 23 76 3.0 0.0 0.00 0.00 0.00 87 1012.6
20190218064552 23 103 1.0 0.0 0.00 0.00 0.00 87 1013.1
20190218063105 23 100 2.0 0.0 0.00 0.00 0.00 86 1013.0
20190218061608 23 78 2.0 0.0 0.00 0.00 0.00 87 1013.1
20190218060034 23 74 3.0 0.0 0.00 0.00 0.00 87 1013.5
20190218054535 23 71 3.0 0.0 0.00 0.00 0.00 87 1013.7
20190218053036 23 78 3.0 0.0 0.00 0.00 0.00 86 1014.1
20190218051519 23 58 3.0 0.0 0.00 0.00 0.00 86 1014.0
20190218050027 23 89 2.0 0.0 0.00 0.00 0.00 86 1014.2
20190218044533 24 103 1.0 0.0 0.00 0.00 0.00 85 1014.2
20190218043025 24 104 4.0 0.0 0.00 0.00 0.00 85 1014.4
20190218041534 24 108 3.0 0.0 0.00 0.00 0.00 85 1014.8
20190218040009 24 119 1.0 0.0 0.00 0.00 0.00 84 1015.2
20190218034506 24 119 1.0 0.0 0.00 0.00 0.00 84 1015.1
20190218033004 24 119 2.0 0.0 0.00 0.00 0.00 84 1014.9
20190218031513 24 120 3.0 0.0 0.00 0.00 0.00 83 1015.5
20190218030223 24 98 2.0 0.0 0.00 0.00 0.00 82 1015.8
20190218024659 24 102 0.0 0.0 0.00 0.00 0.00 81 1015.8
20190218023237 25 104 2.0 0.0 0.00 0.00 0.00 79 1016.0
20190218021723 25 109 3.0 0.0 0.00 0.00 0.00 77 1015.6
20190218020139 26 165 2.0 0.0 0.00 0.00 0.00 75 1016.0
20190218014705 26 167 1.0 0.0 0.00 0.00 0.00 71 1016.4
20190218013159 27 177 2.0 0.0 0.00 0.00 0.00 70 1016.2
20190218011709 27 154 4.0 0.0 0.00 0.00 0.00 69 1016.1
20190218010239 27 186 6.0 0.0 0.00 0.00 0.00 68 1016.6
20190218004733 26 84 2.0 0.0 0.00 0.00 0.00 64 1016.8
20190218003206 26 54 5.0 0.0 0.00 0.00 0.00 63 1017.0
20190218001614 26 57 5.0 0.0 0.00 0.00 0.00 62 1017.0
20190218000154 26 49 5.0 0.0 0.00 0.00 0.00 62 1016.8
20190217234735 26 52 5.0 0.0 0.00 0.00 0.00 61 1017.2
20190217233124 26 46 6.0 0.0 0.00 0.00 0.00 60 1017.4
20190217231612 27 52 5.0 0.0 0.00 0.00 0.00 60 1017.1
20190217230120 27 52 4.0 0.0 0.00 0.00 0.00 59 1017.6
20190217224709 28 46 4.0 0.0 0.00 0.00 0.00 58 1017.5
20190217223112 28 69 5.0 0.0 0.00 0.00 0.00 57 1017.1
20190217221651 29 56 3.0 0.0 0.00 0.00 0.00 56 1016.9
20190217220137 30 68 3.0 0.0 0.00 0.00 0.00 54 1017.0
20190217214632 30 75 2.0 0.0 0.00 0.00 0.00 52 1017.4